[[{"header":{"parameterUnit":"m.s-1","parameterCategory":1,"la1":30.2991,"la2":30.254,"lo1":-89.0895,"lo2":-89.0444,"dy":0.0017,"dx":0.0017,"nx":28,"ny":28,"refTime":"2024-10-12T21:00:00:Z","depth":0,"parameterNumber":2,"parameterNumberName":"U-component_of_WINDS"},"data":[0,0,0,0,0,0,0,0,0,0,0,0,0,0,0,0,0,0,0,0,0,0,0,0,0,0,0,0,0,0,0,0,0,0,0,0,0,0,0,0,0,0,0,0,0,0,0,0,0,0,0,0,0,0,0,0,0,0,0.1376,0.1376,0,0.141,0.141,0.141,0.1432,0.1432,0.1432,0.1432,0.1466,0.1467,0.1467,0,0,0,0,0,0,0,0,0,0,0,0,0,0.1328,0.1329,0.1376,0.1376,0.1377,0.141,0.141,0.1411,0.1432,0.1432,0.1432,0.1432,0.1466,0.1466,0.1467,0,0,0,0,0,0,0,0,0,0,0,0,0,0.1354,0.1329,0.1376,0.1391,0.1393,0.141,0.141,0.1411,0.1432,0.1432,0.1432,0.1432,0.1465,0.1466,0.1468,0.1471,0,0,0.1471,0.1472,0,0,0,0,0,0,0,0,0.1352,0.1356,0.1389,0.139,0.1392,0.1417,0.1406,0.1431,0.1431,0.1417,0.1432,0.1432,0.1449,0.1452,0.1458,0.1473,0.1474,0.1471,0.1472,0.1472,0.1473,0,0,0,0,0,0,0,0.1351,0.1354,0.1389,0.1389,0.1391,0.1396,0.14,0.141,0.1432,0.1418,0.142,0.1424,0.145,0.1456,0.1459,0.1475,0.1471,0.1472,0.1473,0.1473,0.1493,0.1493,0,0,0,0,0,0,0.1346,0.1353,0.1388,0.139,0.1372,0.1397,0.1401,0.1409,0.1432,0.1435,0.1423,0.1424,0.1454,0.1457,0.146,0.1465,0.1472,0.1474,0.1474,0.1493,0.1493,0.1493,0,0,0,0,0,0,0.1345,0.1349,0.1387,0.1372,0.1377,0.1397,0.1406,0.1409,0.1415,0.1435,0.1439,0.1426,0.1455,0.1458,0.1468,0.1466,0.1474,0.1475,0.1493,0.1493,0.1493,0.1475,0,0,0,0,0,0,0.1344,0.1349,0.1351,0.1372,0.1378,0.1395,0.1406,0.141,0.1417,0.1419,0.1439,0.1442,0.1455,0.1466,0.1469,0.1468,0.1476,0.1494,0.1493,0.1493,0.1476,0.1474,0.1473,0,0,0,0,0,0.1342,0.1345,0.1351,0.1355,0.1381,0.1395,0.1398,0.1413,0.1417,0.1419,0.1432,0.1442,0.1466,0.1467,0.1471,0.147,0.1494,0.1493,0.1493,0.1477,0.1475,0.1473,0,0,0,0,0,0,0.1324,0.1348,0.1355,0.1365,0.1378,0.1398,0.1401,0.141,0.1422,0.1423,0.1441,0.1445,0.1453,0.1462,0.1463,0.1474,0.1481,0.1481,0.1467,0.1466,0.1464,0.1461,0.1477,0,0,0,0,0,0.1321,0.1331,0.1351,0.1358,0.1364,0.1381,0.1388,0.1398,0.1412,0.1417,0.1431,0.1443,0.1454,0.146,0.1471,0.1477,0.1481,0.1479,0.1477,0.1476,0.1476,0.1478,0.1477,0.1491,0.1491,0.1491,0,0,0.1315,0.1329,0.1335,0.1354,0.1365,0.1374,0.1386,0.1395,0.1401,0.1419,0.1428,0.1438,0.1454,0.1461,0.1466,0.147,0.1472,0.1475,0.1474,0.1475,0.1478,0.1476,0.1475,0.1491,0.1491,0.1491,0,0,0.1309,0.1321,0.1327,0.1338,0.1354,0.1366,0.1367,0.1386,0.1393,0.1403,0.1416,0.1424,0.1442,0.1451,0.1459,0.1454,0.1463,0.1457,0.1449,0.1452,0.1451,0.145,0.1447,0.1446,0.1457,0.1457,0.1457,0,0.13,0.1314,0.1329,0.1338,0.1345,0.1361,0.1366,0.1376,0.1395,0.1399,0.1404,0.1425,0.1437,0.1447,0.1445,0.1451,0.1452,0.1455,0.1449,0.1449,0.1448,0.1446,0.1445,0.1456,0.1456,0.1456,0.1457,0,0.1301,0.1311,0.1314,0.1331,0.1339,0.1346,0.1362,0.1368,0.1377,0.1387,0.1397,0.1411,0.1424,0.1427,0.1436,0.1437,0.1439,0.1446,0.1454,0.1445,0.1444,0.1443,0.1455,0.1455,0.1456,0.1456,0,0,0.1286,0.131,0.1311,0.1318,0.1337,0.1344,0.1351,0.1364,0.1368,0.138,0.1386,0.14,0.1406,0.1414,0.1424,0.1427,0.1421,0.1433,0.1434,0.143,0.1422,0.1416,0.1415,0.1427,0.1427,0.1427,0.142,0,0.1282,0.1295,0.1309,0.1317,0.1325,0.1339,0.1345,0.1356,0.1366,0.1374,0.1385,0.1394,0.1402,0.1407,0.141,0.1421,0.1419,0.1422,0.1431,0.1432,0.1427,0.1414,0.1408,0.1402,0.142,0.142,0.1419,0,0.128,0.129,0.13,0.1315,0.1319,0.1325,0.1336,0.1344,0.1357,0.1363,0.1372,0.1382,0.1389,0.1395,0.1405,0.1406,0.1411,0.1417,0.1417,0.1418,0.1425,0.1414,0.14,0.1399,0.1419,0.1419,0.1419,0,0.1266,0.1283,0.129,0.1296,0.1316,0.1318,0.1326,0.1339,0.1345,0.1356,0.136,0.1371,0.1376,0.1384,0.1397,0.14,0.1404,0.1412,0.1409,0.1409,0.1409,0.1409,0.1395,0.1413,0.1413,0.1413,0.1413,0,0.1261,0.1266,0.1285,0.1289,0.1294,0.1309,0.1314,0.1323,0.1334,0.134,0.1352,0.1357,0.1374,0.1381,0.139,0.1396,0.1399,0.1404,0.1406,0.1402,0.1402,0.1406,0.1406,0.1413,0.1413,0.1413,0.1413,0,0.1247,0.126,0.1269,0.1286,0.129,0.1293,0.1307,0.1311,0.1321,0.1328,0.1331,0.1346,0.1354,0.1368,0.138,0.1387,0.139,0.1395,0.1386,0.1387,0.1383,0.1383,0.1371,0.1369,0.1389,0.1389,0.1389,0,0.1243,0.1247,0.1263,0.1268,0.1275,0.1283,0.1289,0.1303,0.1308,0.1322,0.1324,0.1334,0.1342,0.1354,0.1366,0.1376,0.138,0.1375,0.1382,0.1377,0.1379,0.1378,0.1378,0.1373,0.1373,0.1373,0.1373,0,0.1233,0.1239,0.1247,0.1257,0.1264,0.1272,0.1282,0.1285,0.13,0.1306,0.1314,0.1321,0.1333,0.1341,0.1352,0.136,0.1368,0.137,0.137,0.1366,0.136,0.1362,0.1381,0.1371,0.1371,0.1371,0.1371,0.1371,0.1223,0.1227,0.1239,0.1247,0.1255,0.1263,0.1267,0.1277,0.1284,0.1295,0.1303,0.131,0.1321,0.1336,0.1343,0.1349,0.1353,0.1353,0.1352,0.1352,0.135,0.136,0.1351,0.1351,0.1351,0.1351,0.1351,0,0.1214,0.1221,0.1229,0.1241,0.1247,0.1254,0.1264,0.1269,0.1275,0.1285,0.1292,0.1301,0.1309,0.1321,0.1329,0.1332,0.1336,0.1333,0.1333,0.1334,0.1347,0.1345,0.133,0.133,0.133,0.133,0.133,0.133,0.1209,0.1215,0.1222,0.1231,0.1239,0.1246,0.1251,0.1258,0.1265,0.1274,0.1281,0.1288,0.1298,0.1307,0.1315,0.1318,0.132,0.1316,0.1321,0.1332,0.1334,0.1336,0.1335,0.1317,0.1317,0.1308,0.1308,0.1308]},{"header":{"parameterUnit":"m.s-1","parameterCategory":1,"la1":30.2991,"la2":30.254,"lo1":-89.0895,"lo2":-89.0444,"dy":0.0017,"dx":0.0017,"nx":28,"ny":28,"refTime":"2024-10-12T21:00:00:Z","depth":0,"parameterNumber":3,"parameterNumberName":"V-component_of_WINDS"},"data":[0,0,0,0,0,0,0,0,0,0,0,0,0,0,0,0,0,0,0,0,0,0,0,0,0,0,0,0,0,0,0,0,0,0,0,0,0,0,0,0,0,0,0,0,0,0,0,0,0,0,0,0,0,0,0,0,0,0,2.883,2.8829,0,2.8777,2.8777,2.8776,2.8753,2.8753,2.8753,2.8753,2.8695,2.8693,2.8691,0,0,0,0,0,0,0,0,0,0,0,0,0,2.8905,2.8904,2.883,2.8829,2.8828,2.8777,2.8777,2.8776,2.8753,2.8753,2.8753,2.8753,2.8695,2.8693,2.8691,0,0,0,0,0,0,0,0,0,0,0,0,0,2.8864,2.8903,2.883,2.8811,2.8809,2.8777,2.8777,2.8776,2.8753,2.8753,2.8753,2.8753,2.8696,2.8693,2.8691,2.8673,0,0,2.8683,2.8682,0,0,0,0,0,0,0,0,2.8867,2.8861,2.8814,2.8812,2.881,2.8772,2.8782,2.8741,2.8753,2.8774,2.8753,2.8754,2.872,2.8715,2.8705,2.867,2.8668,2.8683,2.8682,2.8681,2.868,0,0,0,0,0,0,0,2.8869,2.8864,2.8809,2.8814,2.8811,2.8803,2.8798,2.8774,2.8747,2.8772,2.877,2.8765,2.8719,2.8708,2.8704,2.8667,2.8683,2.8681,2.8679,2.8678,2.8614,2.8613,0,0,0,0,0,0,2.8876,2.8866,2.881,2.8807,2.8839,2.8802,2.8796,2.8784,2.8747,2.8741,2.8765,2.8764,2.8712,2.8706,2.8701,2.8678,2.8681,2.8678,2.8677,2.8614,2.8614,2.8613,0,0,0,0,0,0,2.8878,2.8871,2.8812,2.8836,2.8828,2.8801,2.8787,2.8783,2.8772,2.8741,2.8736,2.8759,2.8712,2.8705,2.868,2.8675,2.8677,2.8675,2.8614,2.8614,2.8613,2.863,0,0,0,0,0,0,2.888,2.8872,2.8866,2.8836,2.8827,2.8794,2.8787,2.8782,2.8768,2.8767,2.8734,2.8729,2.8711,2.8684,2.8678,2.8672,2.8673,2.8614,2.8614,2.8614,2.863,2.863,2.8631,0,0,0,0,0,2.8883,2.8872,2.8866,2.8859,2.8819,2.8794,2.8788,2.8769,2.8768,2.8761,2.8741,2.873,2.8677,2.8682,2.8675,2.8668,2.8615,2.8614,2.8614,2.863,2.863,2.8631,0,0,0,0,0,0,2.89,2.8868,2.8861,2.884,2.882,2.879,2.8781,2.8771,2.8749,2.8749,2.8724,2.8717,2.8695,2.8679,2.8685,2.8648,2.8645,2.8643,2.8659,2.866,2.866,2.8664,2.8671,0,0,0,0,0,2.8902,2.8885,2.8857,2.8842,2.8832,2.8808,2.8796,2.8784,2.8761,2.8752,2.8731,2.8708,2.8686,2.8672,2.865,2.8628,2.862,2.8619,2.862,2.862,2.8618,2.8605,2.8604,2.8612,2.8612,2.8612,0,0,2.8904,2.8885,2.8875,2.8845,2.8828,2.881,2.8801,2.8782,2.8768,2.8749,2.8725,2.8708,2.8681,2.8658,2.8646,2.8643,2.8615,2.8619,2.862,2.8618,2.8604,2.8603,2.8603,2.8611,2.8611,2.8611,0,0,2.89,2.8884,2.8869,2.8853,2.8828,2.8812,2.8809,2.878,2.8769,2.8745,2.873,2.8712,2.8675,2.8656,2.8642,2.8631,2.8619,2.8624,2.8626,2.8613,2.8612,2.8612,2.8607,2.8606,2.8623,2.8623,2.8623,0,2.8906,2.888,2.8862,2.8845,2.8831,2.8815,2.8799,2.8783,2.8751,2.8742,2.874,2.8693,2.8673,2.8645,2.8643,2.8632,2.8626,2.8627,2.8614,2.8613,2.8612,2.8608,2.8606,2.8623,2.8623,2.8623,2.8623,0,2.8889,2.8871,2.8861,2.8834,2.8819,2.8802,2.878,2.8767,2.8756,2.874,2.8715,2.8691,2.8664,2.8657,2.8645,2.8626,2.8626,2.8619,2.8615,2.8613,2.8608,2.8606,2.8624,2.8624,2.8624,2.8624,0,0,2.8893,2.8856,2.8853,2.884,2.8812,2.8796,2.8778,2.8754,2.8743,2.8721,2.8705,2.8674,2.8669,2.8652,2.8638,2.8627,2.8619,2.8621,2.862,2.8621,2.8596,2.8601,2.8599,2.8611,2.8611,2.8611,2.8598,0,2.8885,2.8854,2.8837,2.8813,2.8795,2.8779,2.8763,2.8743,2.8728,2.8709,2.8691,2.867,2.8664,2.8654,2.8643,2.8622,2.8613,2.8623,2.8594,2.8593,2.8601,2.8597,2.8601,2.8591,2.8596,2.8596,2.8596,0,2.8871,2.8852,2.8826,2.8799,2.8791,2.8778,2.8754,2.8737,2.8713,2.8703,2.8685,2.8671,2.865,2.8648,2.8618,2.8625,2.8612,2.86,2.8599,2.8595,2.8594,2.8592,2.8587,2.8586,2.8593,2.8593,2.8593,0,2.8876,2.8844,2.8824,2.8814,2.8782,2.8773,2.8759,2.8736,2.8722,2.87,2.8691,2.8666,2.8653,2.8634,2.8613,2.8614,2.8584,2.8581,2.8574,2.8574,2.8568,2.8568,2.856,2.8561,2.8561,2.8561,2.8561,0,2.8868,2.8853,2.8826,2.8814,2.8796,2.8777,2.8759,2.8743,2.8723,2.8706,2.869,2.8674,2.8648,2.8629,2.8612,2.859,2.8583,2.8573,2.8569,2.8574,2.8576,2.8565,2.8565,2.856,2.856,2.856,2.856,0,2.8871,2.8853,2.883,2.8803,2.8796,2.8784,2.8759,2.8746,2.873,2.8709,2.8703,2.8677,2.8653,2.8631,2.8599,2.8588,2.8565,2.8559,2.8573,2.8571,2.8565,2.8565,2.8549,2.8546,2.8549,2.8549,2.8549,0,2.8867,2.8855,2.8827,2.8816,2.8803,2.8784,2.8771,2.8751,2.8737,2.8709,2.8699,2.8674,2.8654,2.8617,2.8594,2.8569,2.8563,2.8559,2.8559,2.8565,2.8562,2.8563,2.8561,2.8559,2.8559,2.8559,2.8559,0,2.8862,2.8853,2.8835,2.8814,2.8799,2.878,2.8761,2.8752,2.8728,2.8713,2.869,2.8674,2.8642,2.8618,2.8591,2.8574,2.8562,2.856,2.8556,2.8561,2.857,2.8565,2.8574,2.856,2.856,2.856,2.856,2.856,2.886,2.8849,2.8828,2.8808,2.8792,2.8775,2.8761,2.8744,2.8725,2.8698,2.8687,2.8663,2.8639,2.8602,2.8586,2.8566,2.8563,2.8558,2.8557,2.8556,2.8557,2.8574,2.8561,2.856,2.856,2.856,2.856,0,2.8854,2.8839,2.8821,2.8796,2.878,2.8773,2.8751,2.8738,2.8718,2.8697,2.8678,2.865,2.8627,2.8602,2.8577,2.8565,2.8559,2.8559,2.856,2.8556,2.8561,2.8566,2.8565,2.8565,2.8565,2.8565,2.8565,2.8565,2.8848,2.8829,2.8818,2.8789,2.8775,2.8753,2.8741,2.8724,2.8708,2.8679,2.866,2.8645,2.8622,2.8595,2.8573,2.8566,2.8557,2.8559,2.855,2.8556,2.8556,2.8555,2.856,2.8557,2.8557,2.8546,2.8546,2.8546]}]]